Regional Weather Roundup
Issued by NWS Newport/Morehead, NC

Current Version | Previous Version | Graphics & Text | Print | Product List | Glossary Off
Versions: 1 2 3 4 5 6 7 8 9 10 11 12 13 14 15 16 17 18 19 20 21 22 23 24 25 26 27 28 29 30 31 32 33 34 35 36 37 38 39 40 41 42 43 44 45 46 47 48 49 50
000 ASUS42 KMHX 191513 RWRMHX WEATHER ROUNDUP FOR EASTERN NORTH CAROLINA NATIONAL WEATHER SERVICE NEWPORT/MOREHEAD CITY NC 1000 AM EST FRI JAN 19 2018 NOTE: "FAIR" INDICATES FEW OR NO CLOUDS BELOW 12,000 FEET WITH NO SIGNIFICANT WEATHER AND/OR OBSTRUCTIONS TO VISIBILITY NCZ015>017-031-032-045>047-102-103-191600- NORTH COAST CITY SKY/WX TMP DP RH WIND PRES REMARKS EDENTON FAIR 38 26 61 SW6 30.24R ELIZABETH CITY FAIR 36 27 69 W5 30.22R KITTY HAWK FAIR 36 24 63 W6 30.21S MANTEO FAIR 35 25 67 W5 30.23S $$ NCZ045>047-081-094-103-104-191600- CENTRAL COAST CITY SKY/WX TMP DP RH WIND PRES REMARKS FRISCO FAIR 41 30 65 W7 30.25R $$ NCZ095-097-098-100-101-191600- SOUTHERN COAST CITY SKY/WX TMP DP RH WIND PRES REMARKS BEAUFORT FAIR 42 26 53 NW3 30.27R CEDAR ISLAND NOT AVBL JACKSONVILLE FAIR 42 21 43 W8 30.27R PINEY ISLAND NOT AVBL WILMINGTON FAIR 44 22 41 W8 30.28S $$ NCZ011>013-027>030-043-044-078>080-089-090>093-098-191600- COASTAL PLAIN CITY SKY/WX TMP DP RH WIND PRES REMARKS AHOSKIE FAIR 37 17 45 CALM 30.23R CLINTON FAIR 38 24 56 W3 30.28S ELIZABETHTOWN NOT AVBL GOLDSBORO FAIR 40 24 53 W6 30.25R GREENVILLE FAIR 41 19 42 W3 30.25S HAVELOCK SUNNY 44 24 45 NW7 30.27R KENANSVILLE FAIR 41 21 45 W3 30.27S KINSTON FAIR 43 21 42 SW6 30.27R NEW BERN FAIR 41 22 46 W6 30.27R RICHLANDS FAIR 42 22 44 SW5 30.27R ROCKY MOUNT NOT AVBL WASHINGTON FAIR 40 22 48 W6 30.26R WHITEVILLE FAIR 43 19 38 SW7 30.27R $$ AMZ130-135-150-152-154-156-158-170-250-252-270-ANZ085-086-088-633-658-670-191600- MARINE OBSERVATIONS STATION/POSITION TIME TEMP WIND PRES WAVE SWELL AIR SEA DIR/SP/G HT/PER HT/PER (UTC) (F) (DEG/KT/KT) (MB) (FT/S) (FT/S) CHESAPEAKE LIGHT NOT AVBL 64 E VA BEACH 1450 44 61 250/ 12/ 16 1022.2 4/11 3/11 DUCK 1442 34 38 240/ 8/ 11 1022.8 2 E DUCK 1500 39 N/A 2/11 2/11 OREGON INLET 1442 34 34 240/ 11/ 12 1023.4 13E OREGON INLT 1448 41 N/A 4/11 3/11 HATTERAS CG 1442 39 41 270/ 10/ 13 1023.9 DIAMOND BUOY 1450 47 290/ 14/ 17 1024.7 5/11 3/11 CAPE LOOKOUT 1500 280/ 13/ 14 1025.2 BEAUFORT LAB 1442 41 44 300/ 4/ 6 1024.8 30 SE NEW RVR IN 1408 49 57 280/ 12/ 16 1024.7 30 SE NEW RVR IN 1500 57 N/A 4/11 2/11 27 SE WRIGHTSVLE 1408 48 60 260/ 16/ 23 1024.9 5 SE WRIGHTSVLE 1408 41 46 270/ 10/ 12 1024.7 225 S CAPE HAT 1450 59 70 310/ 8/ 12 1025.6 9/11 8/11 41 SE CHARLESTON 1450 53 70 240/ 14/ 17 1026.4 2/11 2/11 $$

USA.gov is the U.S. government's official web portal to all federal, state and local government web resources and services.